Terminal Aerodrome Forecast
Issued by NWS Milwaukee/Sullivan, WI

Current Version | Previous Version | Text Only | Print | Product List | Glossary On
Versions: 1 2 3 4 5 6 7 8 9 10 11 12 13 14 15 16 17 18 19 20 21 22 23 24 25 26 27 28 29 30 31 32 33 34 35 36 37 38 39 40 41 42 43 44 45 46 47 48 49 50
000
FTUS43 KMKX 260530
TAFMSN
TAF
KMSN 260530Z 2606/2706 16005KT P6SM SCT250
     FM260900 13006KT P6SM FEW070 BKN200
     FM261600 12007KT P6SM FEW020 BKN150
     FM262100 06004KT P6SM OVC050
     FM270400 03004KT P6SM OVC030=

USA.gov is the U.S. government's official web portal to all federal, state and local government web resources and services.